Regional Weather Roundup
Issued by NWS

Home | Current Version | Previous Version | Graphics & Text | Print | Product List | Glossary On
Versions: 1 2 3 4 5 6 7 8 9 10 11 12 13 14 15 16 17 18 19 20 21 22 23 24 25 26 27 28 29 30 31 32 33 34 35 36 37 38 39 40 41 42 43 44 45 46 47 48 49 50
963
ASUS43 KOAX 230802
RWRNE

WEATHER ROUNDUP FOR NEBRASKA
NATIONAL WEATHER SERVICE OMAHA NE
300 AM CDT SAT JUL 23 2016

NOTES: SATELLITE DATA IS BEING USED TO AUGMENT CLOUD COVER ABOVE
       12000 FEET.
       "FAIR" INDICATES FEW OR NO CLOUDS BELOW 12,000 FEET WITH NO
       SIGNIFICANT WEATHER AND/OR OBSTRUCTIONS TO VISIBILITY.

  * THESE STATIONS DO NOT REPORT WEATHER SUCH AS RAIN...SNOW OR FOG.

NEZ001>004-019>022-054>056-230900-
NEBRASKA PANHANDLE

CITY           SKY/WX    TMP DP  RH WIND       PRES   REMARKS
SCOTTSBLUFF    PTCLDY    65  60  84 E6        29.99F
ALLIANCE       CLOUDY    67  62  84 S9        29.97F
CHADRON        CLOUDY    71  61  70 NE5       29.95R
KIMBALL        CLOUDY    67  63  87 SW7       30.07F
SIDNEY         CLOUDY    67  63  87 S7        30.03F
$$

NEZ057>060-069>072-079>082-230900-
SOUTHWEST NEBRASKA

CITY           SKY/WX    TMP DP  RH WIND       PRES   REMARKS
NORTH PLATTE   LGT RAIN  70  65  84 SE20G31   29.88F
IMPERIAL       CLOUDY    72  63  73 E14       29.94F THUNDER
LEXINGTON      RAIN      70  67  89 N9        30.02F
MCCOOK         CLOUDY    72  66  81 NE14      29.97F
OGALLALA       CLOUDY    73  64  74 E7        29.94F
$$

NEZ005>010-023>029-035>040-094-230900-
NORTH CENTRAL NEBRASKA

CITY           SKY/WX    TMP DP  RH WIND       PRES   REMARKS
VALENTINE      CLOUDY    76  67  73 SW7       29.92R
AINSWORTH      CLOUDY    73  64  75 W3        29.94R
BROKEN BOW     RAIN      70  67  90 SE13      30.04R
O`NEILL        TSTM      73  68  82 SW9G21    29.92F
ORD            TSTM      71  65  81 SW14G28   29.97F
THEDFORD       CLOUDY    79  60  52 S28G40    29.93R
$$

NEZ041-046>049-061>064-073>077-083>087-230900-
SOUTH CENTRAL NEBRASKA

CITY           SKY/WX    TMP DP  RH WIND       PRES   REMARKS
GRAND ISLAND   LGT RAIN  78  69  73 W8G31     29.96R
AURORA         CLOUDY    75  70  83 S7        29.90R
HASTINGS       CLOUDY    78  68  71 SW6       29.95R
HEBRON         CLOUDY    80  70  70 S12G18    29.89F
HOLDREGE       LGT RAIN  72  66  82 N20G33    29.99S
KEARNEY *      CLOUDY    73  66  78 NW21G30   29.99S
YORK           MOCLDY    77  68  73 S9        29.89S
$$

NEZ011>018-030>034-042>045-230900-
NORTHEAST NEBRASKA

CITY           SKY/WX    TMP DP  RH WIND       PRES   REMARKS
NORFOLK        CLOUDY    78  75  90 SE5       29.87F
ALBION         LGT RAIN  77  71  81 W18G28    29.96R
BLAIR          CLOUDY    82  74  77 S8        29.91S
FREMONT        MOCLDY    80  73  77 SE9       29.89F
TEKAMAH        CLOUDY    80  77  90 SE7       29.89R
WAYNE          CLOUDY    80  79  97 SE8       29.88F
$$

NEZ050>053-065>068-078-088>093-230900-
SOUTHEAST NEBRASKA

CITY           SKY/WX    TMP DP  RH WIND       PRES   REMARKS
LINCOLN        MOCLDY    82  73  74 S10       29.89S
OMAHA EPPLEY   CLOUDY    84  74  71 S9        29.90R HX  91
BEATRICE       MOCLDY    82  71  69 S8        29.90S
FALLS CITY     MOCLDY    82  73  74 S8        29.91F
NEBRASKA CITY  CLOUDY    79  74  84 S9        29.92S
PLATTSMOUTH    CLOUDY    81  75  82 S9        29.91S
$$

NEZ044-045-051>053-067-230900-
OMAHA AREA

CITY           SKY/WX    TMP DP  RH WIND       PRES   REMARKS
OMAHA EPPLEY   CLOUDY    84  74  71 S9        29.90R HX  91
BLAIR          CLOUDY    82  74  77 S8        29.91S
FREMONT        MOCLDY    80  73  77 SE9       29.89F
MILLARD        CLOUDY    81  75  82 SE3       29.90S
OFFUTT AFB     CLOUDY    81  75  81 SE9       29.90S
PLATTSMOUTH    CLOUDY    81  75  82 S9        29.91S
WAHOO          FAIR      77  74  89 SE6       29.89F
$$




USA.gov is the U.S. government's official web portal to all federal, state and local government web resources and services.